Regional Weather Roundup
Issued by NWS

Home | Current Version | Previous Version | Text Only | Print | Product List | Glossary Off
Versions: 1 2 3 4 5 6 7 8 9 10 11 12 13 14 15 16 17 18 19 20 21 22 23 24 25 26 27 28 29 30 31 32 33 34 35 36 37 38 39 40 41 42 43 44 45 46 47 48 49 50

000
ASUS45 KTFX 020204
RWRMT
MONTANA HOURLY WEATHER ROUNDUP
NATIONAL WEATHER SERVICE GREAT FALLS MT
804 PM MDT MON SEP 1 2014

NOTE: "FAIR" INDICATES FEW OR NO CLOUDS BELOW 12000 FEET WITH NO
SIGNIFICANT WEATHER AND/OR OBSTRUCTIONS TO VISIBILITY.

* THESE STATIONS ARE NOT UNDER NWS QUALITY CONTROL. THEY DO NOT
   REPORT WEATHER SUCH AS PRECIPITATION OR FOG.

MTZ001>007-043-020300-
WEST OF THE DIVIDE
CITY           SKY/WX    TMP DP  RH WIND       PRES   REMARKS
KALISPELL      CLOUDY    63  39  41 W5        29.97R
MISSOULA       CLEAR     64  39  40 NW8       29.99S
BUTTE          CLEAR     63  34  34 NW8       30.04S
MULLAN PASS    FAIR      48  36  63 SW8       30.09S
* LINCOLN      N/A       62  34  35 SW5G17     N/A
* LOOKOUT PASS N/A       55  40  57 SE3        N/A
* POLSON       N/A       62  39  43 NW3        N/A
* RONAN APT    CLEAR     66  41  40 N/A        N/A
* SEELEY LAKE  N/A       63  36  37 NW7G12     N/A
* THOMP F APT  CLEAR     62  35  37 SW6G14     N/A
$$

MTZ008-052>055-020300-
SOUTHWEST MONTANA
CITY           SKY/WX    TMP DP  RH WIND       PRES   REMARKS
BOZEMAN        CLEAR     63  43  48 E7        29.97F
DILLON         CLEAR     61  37  41 W7        30.00F
W YELLOWSTONE  CLEAR     55  39  55 SW12      30.13R
* THREE FORKS  CLEAR     72  48  43 N/A        N/A
* BOULDER HILL N/A       58  29  33 SE1G6      N/A
* MONIDA PASS  N/A       57  33  40 S11        N/A
* RAYNOLDS PAS N/A       57  35  44 SE10       N/A
* WHITEHALL    N/A       70  39  32 NW6        N/A
* WISE RIVER   N/A       63  31  30 NW12G19    N/A
$$

MTZ009>010-012-014-046-048-049-054-020300-
EAST SLOPES AND CENTRAL MONTANA
CITY           SKY/WX    TMP DP  RH WIND       PRES   REMARKS
CUT BANK       CLEAR     61  39  44 W16       29.89F
GREAT FALLS    CLEAR     61  36  39 W8        29.90S
HELENA         CLEAR     66  36  33 W9        29.94F
MALMSTROM AFB  CLEAR     66  34  31 W12       29.91S
* CONRAD       PTCLDY    64  39  40 N/A        N/A
* EAST GLACIER N/A       55  37  51 NW17G26    N/A
* MONARCH      N/A       56  25  30 W13        N/A
* PENDROY      N/A       58  35  42 NW13G21    N/A
* ROGERS PASS  N/A       57  34  42 SE11G26    N/A
* SAINT MARY   N/A       56  38  51 SW10G20    N/A
* SWEET GRASS  N/A       63  37  38 W16G26     N/A
$$

MTZ011-013-016-021-035-040-045-047-050-051-020300-
NORTH CENTRAL MONTANA
CITY           SKY/WX    TMP DP  RH WIND       PRES   REMARKS
HAVRE          PTCLDY    66  36  33 W12       29.81S
LEWISTOWN      MOCLDY    63  37  38 W7        29.93S
* CHESTER      N/A       66  36  33 W12G18     N/A
* DENTON       N/A       64  33  31 W11G18     N/A
* GEYSER       N/A       61  33  35 W12        N/A
* JUDITH GAP   N/A       60  35  39 NW7        N/A
* LOMA         N/A       69  37  31 W17        N/A
$$

MTZ017>020-022>027-061-062-020300-
NORTHEAST MONTANA
CITY           SKY/WX    TMP DP  RH WIND       PRES   REMARKS
GLASGOW        CLOUDY    63  48  58 SE7       29.81F
GLENDIVE       CLOUDY    57  46  67 W7        29.88S
JORDAN         PTCLDY    63  46  54 CALM      29.86S
SIDNEY         PTCLDY    61  46  58 SW6       29.85S
WOLF POINT     PTCLDY    57  52  83 S3        29.83F
* BEAVER HILL  N/A       59  45  60 SW7        N/A
* CIRCLE       N/A       64  48  56 N/A        N/A
* LINDSAY DVD  N/A       59  45  60 W4         N/A
* NAVAJO       N/A       59  46  62 SW6        N/A
$$

MTZ028>042-056>058-020300-
SOUTHCENTRAL AND SOUTHEAST MONTANA
CITY           SKY/WX    TMP DP  RH WIND       PRES   REMARKS
BAKER          FAIR      57  46  67 SW5       29.91R
BILLINGS       PTCLDY    64  37  37 NW5       29.94R
LIVINGSTON     CLEAR     64  36  35 W13       29.96F
MILES CITY     MOCLDY    64  39  40 W7        29.89R
* LAUREL APT   CLEAR     66  37  34 N/A        N/A
* ROUNDUP APT  CLEAR     66  36  33 N/A        N/A
* ALZADA       N/A       57  44  62 NW1        N/A
* HYSHAM       N/A       65  34  32 N/A        N/A
* LAME DEER    N/A       61  36  39 N/A        N/A
* REED POINT   N/A       68  34  28 W6G12      N/A
* ROSCOE HILL  N/A       58  34  41 SE8        N/A
$$

REGIONAL REPORTS...DAKOTAS
CITY           SKY/WX    TMP DP  RH WIND       PRES   REMARKS
WILLISTON      PTCLDY    61  48  62 SW5       29.82S
DICKINSON      CLEAR     55  48  77 SW8       29.87R
BEACH          N/A       55  46  72 W8        29.89S
CROSBY         CLEAR     55  48  77 W5        29.81R
TIOGA          CLEAR     55  46  72 W8        29.85S
WATFORD CITY   CLEAR     57  46  67 SW5       29.82S
BISMARCK       PTCLDY    64  50  61 SW5       29.85R
GRAND FORKS    PTCLDY    61  55  81 SW3       29.74R
FARGO          PTCLDY    61  55  81 SE6       29.78R
BUFFALO SD     PTCLDY    61  46  58 E3        29.87R
RAPID CITY     PTCLDY    54  50  86 CALM      29.97R
$$

REGIONAL REPORTS...WYOMING/IDAHO/WASHINGTON
CITY           SKY/WX    TMP DP  RH WIND       PRES   REMARKS
GILLETTE       CLEAR     50  45  83 SW8       30.02R
SHERIDAN       CLEAR     54  46  74 S8        29.98S
CODY           CLEAR    N/A N/A N/A N/A        N/A
YELLOWSTONE LA CLEAR     48  37  66 CALM      30.22R
SALMON         CLEAR     63  45  52 CALM      29.95S
MULLAN PASS    FAIR      48  36  63 SW8       30.09S
SAND POINT     CLOUDY    63  50  63 CALM      29.94F
SPOKANE        FAIR      70  37  30 SW13      29.96F

$$




USA.gov is the U.S. government's official web portal to all federal, state and local government web resources and services.